Home > Weather > Springfield > Past weeks

Flag for USA Past Weather in Springfield, Massachusetts, USA — Yesterday and Last 2 Weeks

Now
74 °F

Clear.


Feels Like: 74 °F
Forecast: 69 / 89 °F
Wind: No wind

Location: Barnes Municipal Airport

Current Time: Jul 26, 2016 at 12:33:54 AM

Latest Report: Jul 25, 2016 at 11:53 PM


Visibility: 10 mi

Pressure: 29.81 "Hg

Humidity: 82%

Dew Point: 68 °F

Location of SpringfieldLocation

Past Weather in Springfield — Graph

°F

Springfield Temperature Yesterday

Maximum temperature yesterday: 96 °F (at 12:53 PM)
Minimum temperature yesterday: 63 °F (at 5:53 AM)
Average temperature yesterday: 80 °F

High & Low Weather Summary for the Past Weeks

 TemperatureHumidityPressure
High97 °F (Jul 22, 4:53 PM)97% (Jul 14, 11:53 PM)30.23 "Hg (Jul 14, 11:53 PM)
Low53 °F (Jul 20, 4:53 AM)24% (Jul 23, 3:53 PM)29.72 "Hg (Jul 22, 5:53 PM)
Average76 °F62%29.97 "Hg
* Reported Jul 10 10:53 PM — Jul 25 10:53 PM, Springfield, Weather by CustomWeather, © 2016

Note: Actual official high and low records may vary slightly from our data, if they occured in-between our weather recording intervals... More about our weather records

Advertising

Springfield Weather History for the Previous 24 Hours

Scroll right to see more
 ConditionsComfort  
Time TempWeatherWind HumidityBarometerVisibility
10:53 PM
Mon, Jul 25
77 °FClear.3 mph74%29.82 "Hg10 mi
9:53 PM79 °FClear.5 mph72%29.82 "Hg10 mi
8:53 PM79 °FPartly sunny.10 mph72%29.80 "Hg10 mi
7:53 PM83 °FLight rain. Passing clouds.14 mph63%29.78 "Hg10 mi
6:53 PM86 °FSunny.12 mph53%29.79 "Hg10 mi
5:53 PM88 °FSunny.10 mph50%29.78 "Hg10 mi
4:53 PM93 °FSunny.17 mph47%29.76 "Hg10 mi
3:53 PM91 °FSunny.5 mph44%29.78 "Hg10 mi
2:53 PM93 °FPartly sunny.10 mph38%29.82 "Hg10 mi
1:53 PM94 °FPassing clouds.9 mph41%29.83 "Hg10 mi
12:53 PM96 °FScattered clouds.10 mph36%29.83 "Hg10 mi
11:53 AM93 °FSunny.12 mph42%29.86 "Hg10 mi
10:53 AM88 °FSunny.7 mph50%29.89 "Hg10 mi
9:53 AM81 °FSunny.7 mph56%29.90 "Hg10 mi
8:53 AM77 °FSunny.6 mph60%29.91 "Hg10 mi
7:53 AM72 °FSunny.No wind64%29.94 "Hg10 mi
6:53 AM67 °FSunny.No wind73%29.94 "Hg10 mi
5:53 AM63 °FClear.5 mph81%29.93 "Hg10 mi
4:53 AM65 °FClear.3 mph76%29.94 "Hg10 mi
3:53 AM65 °FClear.No wind76%29.94 "Hg10 mi
2:53 AM68 °FClear.3 mph76%29.95 "Hg10 mi
1:53 AM67 °FClear.No wind79%29.95 "Hg10 mi
12:53 AM69 °FClear.No wind73%29.96 "Hg10 mi
Weather by CustomWeather, © 2016

See weather overviewHow to use our weather pages